Current weather by "City, St" or "zip code"  
 

Current Conditions: Sidney-Richland, MT

Overcast and Windy


41.0 F

Last Updated on Oct 31 2020, 12:56 pm MDT
Humidity: 49%
Wind Speed: NW 26.5 G 38.0 mph
Barometer 30.16 in
Dewpoint: 23.0 F
Visibility: 10.00 mi
Precip: --
Heat Index: NA
Wind Chill: 30 F
Current conditions at:

Sidney-Richland, MT (KSDY)

Lat: 47.7 Lon: 104.2

Local Radar Image active severe weather and emergency alerts image image weather storm and storm spotter reports image weather observation monitoring service image
Local
Radar
Active
Alerts
Storm Reports Obs
Monitoring

Sign-up For Email & Text Message Weather Alert Notification Services



Advertise Here

Observation History for Sidney-Richland, MT


Time Wind
(mph)
Vis
(mi)
Weather Precip (in) Temperature (F) Relative
Humidity
Wind
Chill
(F)
Heat
Index
(F)
Pressure
Air Dwpt altimeter
(in)
sea level
(mb)
Rmks
12:56 pm MDT NW 26.5 G 38.0 10.00 Overcast and Windy -- 41.0 23.0 49% 30 NA 30.16 960.4
11:56 am MDT NW 26.5 G 40.3 10.00 Overcast and Windy -- 39.0 21.9 50% 28 NA 30.13 959.5
10:56 am MDT NW 26.5 G 34.5 10.00 Mostly Cloudy and Windy -- 40.0 24.1 53% 29 NA 30.09 958.0
9:56 am MDT W 27.6 G 36.8 10.00 Partly Cloudy and Windy -- 39.0 26.1 60% 28 NA 30.04 956.4
8:56 am MDT NW 25.3 G 31.1 10.00 A Few Clouds and Breezy -- 38.0 26.1 62% 27 NA 29.99 954.9
7:56 am MDT NW 13.8 10.00 A Few Clouds -- 38.0 28.0 68% 30 NA 29.94 953.5
6:56 am MDT NW 18.4 10.00 Mostly Cloudy -- 40.0 30.0 68% 31 NA 29.91 952.4
5:56 am MDT NW 23.0 G 33.4 10.00 Overcast and Breezy -- 45.0 35.1 68% 36 NA 29.83 1049.8
4:56 am MDT NW 23.0 G 29.9 10.00 Fair and Breezy -- 45.0 34.0 66% 36 NA 29.79 1048.3
3:56 am MDT W 18.4 G 26.5 10.00 Fair -- 46.0 34.0 63% 39 NA 29.74 1046.7
2:56 am MDT W 18.4 G 24.2 10.00 Fair -- 47.0 33.1 59% 40 NA 29.69 1045.2
1:56 am MDT W 18.4 G 26.5 10.00 Fair -- 48.0 32.0 54% 41 NA 29.66 1044.2
12:56 am MDT W 12.7 10.00 Fair -- 49.0 30.9 50% 44 NA 29.64 1043.5
11:56 pm MDT W 17.3 G 28.8 10.00 Fair -- 53.0 30.0 41% 48 NA 29.61 1042.7
10:56 pm MDT W 19.6 G 33.4 10.00 Partly Cloudy -- 55.0 33.1 44% 50 NA 29.57 1041.3
9:56 pm MDT W 18.4 G 39.1 10.00 A Few Clouds -- 56.0 36.0 47% 52 NA 29.57 1041.1
8:56 pm MDT NW 32.2 G 40.3 10.00 Overcast and Windy -- 56.0 37.0 49% 50 NA 29.53 1040.2
7:56 pm MDT SW 11.5 10.00 Fair -- 52.0 39.0 61% 48 NA 29.44 1037.1
6:56 pm MDT SW 9.2 10.00 Fair -- 51.0 37.9 61% 48 NA 29.46 1037.7
5:56 pm MDT S 9.2 10.00 Fair -- 52.0 37.0 57% 49 NA 29.48 1038.5
4:56 pm MDT S 6.9 10.00 Fair -- 59.0 37.9 46% 58 NA 29.52 1039.7
3:56 pm MDT S 11.5 10.00 Fair -- 64.0 39.0 40% NA NA 29.55 1040.8
2:56 pm MDT S 19.6 G 26.5 10.00 Fair -- 65.0 39.0 39% NA NA 29.60 1042.2
1:56 pm MDT S 18.4 10.00 Fair -- 64.0 39.9 41% NA NA 29.66 1044.3

Regional Weather Observation


Glendive, Dawson Community Airport, MT (KGDV)

Fair and Windy
41.0 F

Williston, Sloulin Field International Airport, ND (KISN)

A Few Clouds
46.0 F

WATFORD CITY, ND (KS25)

Mostly Cloudy and Windy
39.0 F

Wolf Point, Clayton Airport, MT (KOLF)

Fair and Breezy
42.0 F

CROSBY, ND (KD50)

Overcast and Windy
32.0 F

BEACH, ND (K20U)

Partly Cloudy and Windy
41.0 F